星链-5137 (STARLINK-5137 )

导读

STARLINK-5137是美国太空探索技术公司星链星座的卫星,于2022年10月5日发射升空,属于星链互联网卫星项目的一员。该卫星旨在为全球提供低延迟、高速率的卫星互联网服务,目前已完成入轨部署,参与星链星座的组网运营,支撑全球偏远地区等场景的互联网接入服务。

基本信息
目录编号:
53975
目录名称:
STARLINK-5137
国际标识:
2022-125M
轨道中心:
EARTH
卫星名称:
星链-5137
卫星全名:
星链-5137 (STARLINK-5137 )
卫星状态:
在轨 (已飞行1430 天)
发射日期:
2022-10-05 UTC
国别 :
美国 (US)
星等 :
--
轨道信息
数据来源 国际轨道数据 AOE轨道数据
星历时间 2026-09-03T07:34:29+0800
1天前
查看轨道信息
2026-09-02T23:00:00+0800
2天前
查看轨道信息
半长轴 6917.935km 6917.915km
偏心率 0.000173 0.0001421
轨道倾角 53.160° 53.157°
近地点辐角 78.626° 93.962°
升交点赤经 142.243° 143.848°
平近点角 281.493° 124.453°
近地点 538.601km 538.794km
远地点 540.995km 540.762km
周期 95.439分钟 95.438分钟
每日圈数 15.088224 15.088288
详细信息
固有亮度:
5
最大亮度:
2.5
卫星平台:
Starlink v1.5
覆盖范围:
全球
运营商:
太空探索技术公司
运营商所在国:
美国
制造商(研发单位):
太空探索技术公司
制造商所在国:
美国
使用方式:
暂无
卫星简介
星链(Starlink)计划是由太空探索技术公司(SpaceX)提出的一个巨型低轨卫星互联网星座项目,计划在2019年至2024年间在太空搭建由约1.2万颗卫星组成的“星链”网络,其中1584颗将部署在地球上空550千米处的近地轨道,并从2020年开始工作。该卫星仍在工作。
2D轨道图
3D轨道图
轨道高度分析图
轨道倾角分析图
轨道综合分析图
查看轨道综合分析图
交会数据列表
事件ID 空间交会对象 最接近时刻(TCA) 交会距离 交会风险概率(CRP) 交会风险指数(CRI) 操作
CDM_260904-225302-643205-397522
CZ-4 DEB (26432)
2026-09-04T
22:53:18+0000
1.005 km
极远距离
2.236213E-5 中风险 0.62
CDM_260906-232205-397505-910221
2026-09-06T
23:22:13+0000
1.417 km
极远距离
6.860938E-6 低风险 0.52
CDM_260905-145705-397505-408921
2026-09-05T
14:57:35+0000
1.722 km
极远距离
3.416977E-6 低风险 0.46